Home   Weather   Vasai-Virar   Past weeks

Flag for India Past Weather in Vasai-Virar, Maharashtra, India — Yesterday and Last 2 Weeks

Now
82 °F

Scattered clouds.


Feels Like: 89 °F
Forecast: 79 / 85 °F
Wind: 8 mph from Northwest

Location: Mumbai / Santacruz

Current Time: Sep 30, 2016 at 10:30:03 AM

Latest Report: Sep 30, 2016 at 10:00 AM


Visibility: 2 mi

Pressure: 29.80 "Hg

Humidity: 79%

Dew Point: 75 °F

Location of Vasai-VirarLocation

Past Weather in Vasai-Virar — Graph

°F

Vasai-Virar Temperature Yesterday

Maximum temperature yesterday: 88 °F (at 12:00 PM)
Minimum temperature yesterday: 81 °F (at 1:30 AM)
Average temperature yesterday: 83 °F

High & Low Weather Summary for the Past Weeks

 TemperatureHumidityPressure
High88 °F (Sep 26, 1:30 PM)100% (Sep 15, 12:00 PM)29.86 "Hg (Sep 15, 12:00 PM)
Low75 °F (Sep 20, 4:00 PM)59% (Sep 29, 2:30 PM)29.59 "Hg (Sep 17, 2:30 PM)
Average81 °F88%29.74 "Hg
* Reported Sep 15 8:30 AM — Sep 30 9:00 AM, Vasai-Virar, Weather by CustomWeather, © 2016

Note: Actual official high and low records may vary slightly from our data, if they occured in-between our weather recording intervals... More about our weather records

Advertising

Vasai-Virar Weather History for the Previous 24 Hours

Scroll right to see more
 ConditionsComfort  
Time TempWeatherWind HumidityBarometerVisibility
9:00 AM
Fri, Sep 30
82 °FScattered clouds.7 mph79%29.80 "Hg1 mi
8:30 AM82 °FScattered clouds.5 mph79%29.80 "Hg1 mi
8:00 AM81 °FScattered clouds.3 mph84%29.77 "Hg1 mi
7:30 AM79 °FScattered clouds.No wind89%29.77 "Hg1 mi
7:00 AM79 °FScattered clouds.No wind89%29.77 "Hg1 mi
6:30 AM79 °FPassing clouds.No wind89%29.74 "Hg1 mi
6:00 AM79 °FPassing clouds.No wind89%29.74 "Hg1 mi
5:30 AM79 °FPassing clouds.5 mph89%29.74 "Hg1 mi
5:00 AM79 °FPassing clouds.5 mph84%29.74 "Hg1 mi
4:30 AM79 °FPassing clouds.3 mph89%29.74 "Hg1 mi
4:00 AM79 °FPassing clouds.5 mph89%29.74 "Hg1 mi
3:30 AM79 °FPassing clouds.3 mph84%29.74 "Hg1 mi
3:00 AM81 °FPassing clouds.No wind84%29.74 "Hg1 mi
2:30 AM81 °FPassing clouds.No wind84%29.74 "Hg1 mi
2:00 AM81 °FPassing clouds.No wind84%29.74 "Hg1 mi
1:30 AM79 °FPassing clouds.No wind89%29.77 "Hg2 mi
11:30 PM
Thu, Sep 29
81 °FHaze.5 mph84%29.80 "Hg2 mi
11:00 PM81 °FHaze.5 mph84%29.80 "Hg2 mi
10:30 PM82 °FHaze.5 mph74%29.80 "Hg2 mi
10:00 PM84 °FHaze.6 mph74%29.80 "Hg2 mi
9:30 PM82 °FHaze.7 mph79%29.80 "Hg2 mi
9:00 PM82 °FHaze.7 mph79%29.77 "Hg2 mi
8:30 PM82 °FHaze.8 mph79%29.77 "Hg2 mi
8:00 PM82 °FHaze.7 mph79%29.77 "Hg2 mi
7:30 PM82 °FHaze.8 mph74%29.77 "Hg2 mi
7:00 PM82 °FHaze.7 mph74%29.74 "Hg3 mi
6:30 PM84 °FClear.8 mph70%29.74 "Hg4 mi
6:00 PM84 °FClear.9 mph70%29.74 "Hg4 mi
5:30 PM84 °FPassing clouds.10 mph70%29.71 "Hg4 mi
5:00 PM86 °FPassing clouds.12 mph62%29.71 "Hg4 mi
4:30 PM86 °FPassing clouds.9 mph66%29.71 "Hg4 mi
4:00 PM86 °FPassing clouds.13 mph62%29.71 "Hg4 mi
3:30 PM88 °FPassing clouds.12 mph62%29.74 "Hg4 mi
3:00 PM88 °FPassing clouds.14 mph62%29.74 "Hg4 mi
2:30 PM88 °FHaze.15 mph59%29.74 "Hg3 mi
2:00 PM86 °FHaze.12 mph66%29.74 "Hg3 mi
1:30 PM86 °FScattered clouds.12 mph66%29.77 "Hg3 mi
1:00 PM86 °FBroken clouds.14 mph66%29.77 "Hg3 mi
12:30 PM86 °FBroken clouds.9 mph66%29.80 "Hg3 mi
12:00 PM88 °FBroken clouds.9 mph62%29.80 "Hg2 mi
11:30 AM86 °FBroken clouds.10 mph66%29.83 "Hg2 mi
11:00 AM84 °FBroken clouds.10 mph70%29.83 "Hg2 mi
10:30 AM84 °FBroken clouds.9 mph74%29.83 "Hg2 mi
10:00 AM84 °FBroken clouds.10 mph74%29.83 "Hg2 mi
Weather by CustomWeather, © 2016

See weather overviewHow to use our weather pages